Location: Chaumontel
(49.1247°N, 2.4324°E)
Time: 12:57:00
(UTC+00:00)

COSMO-SKYMED 1 - Pass Details

Date: 03 February 2023
Orbit: 621 x 623 km, 97.9° (Epoch: 22 March)

Event Time Altitude Azimuth Distance (km) Brightness Sun altitude
Rises 18:41:14 0° 8° (N) 2,920 5.9 -18.4°
Reaches altitude 10° 18:43:31 10° 1° (N) 2,008 5.1 -18.7°
Maximum altitude 18:47:38 42° 291° (WNW) 899 3.8 -19.4°
Drops below altitude 10° 18:51:43 10° 221° (SW) 1,992 5.7 -20.1°
Sets 18:53:58 0° 214° (SW) 2,893 6.5 -20.4°
